Flag for U.S.A. Weather past 2 weeks in Brockton, Massachusetts, U.S.A.

Now
76 °F

Mild.


Feels Like: 77 °F
Forecast: 59 / 76 °F
Wind: 16 mph from South

Location: East Milton

Current Time: Sep 21, 2014 at 11:16:12 AM

Latest Report: Sep 21, 2014 at 9:54 AM


Visibility: N/A

Pressure: 29.94 "Hg

Humidity: 72%

Dew point: 66 °F

Location of BrocktonLocation

Historic Weather in Brockton — Graph

°F

Brockton temperature yesterday

Maximum temperature yesterday: 68 °F (at 2:54 PM)
Minimum temperature yesterday: 46 °F (at 12:54 AM)
Average temperature yesterday: 57 °F

Past Weeks' High & Low Weather Summary

 TemperatureHumidityPressure
High87 °F (Sep 6, 12:54 PM)100% (Sep 9, 11:54 PM)30.45 "Hg (Sep 9, 11:54 PM)
Low43 °F (Sep 19, 6:54 AM)34% (Sep 17, 4:54 PM)29.79 "Hg (Sep 6, 5:54 PM)
Average61 °F72%30.14 "Hg
* Reported Sep 6 9:54 AM — Sep 21 9:54 AM, Brockton, Weather by CustomWeather, © 2014

Note: Actual official high and low records may vary slightly from our data, if they occured in-between our weather recording intervals... More about our weather records

Advertising

Brockton weather history for previous 24 hours

 ConditionsComfort  
Time TempWeatherWind HumidityBarometerVisibility
9:54 AM
Sep 21
76 °FMild.16 mph72%29.94 "HgN/A
8:54 AM69 °FMild.15 mph87%29.95 "HgN/A
7:54 AM68 °FMild.17 mph90%29.96 "HgN/A
6:54 AM65 °FMild.18 mph94%29.97 "HgN/A
5:54 AM64 °FMild.17 mph94%29.97 "HgN/A
4:54 AM63 °FMild.15 mph93%29.99 "HgN/A
3:54 AM63 °FMild.15 mph93%30.02 "HgN/A
2:54 AM61 °FCool.15 mph97%30.04 "HgN/A
1:54 AM61 °FCool.13 mph90%30.08 "HgN/A
12:54 AM61 °FCool.13 mph87%30.11 "HgN/A
11:54 PM
Sep 20
60 °FCool.14 mph86%30.12 "HgN/A
10:54 PM60 °FCool.15 mph83%30.14 "HgN/A
9:54 PM61 °FCool.16 mph81%30.16 "HgN/A
8:54 PM60 °FCool.15 mph80%30.17 "HgN/A
7:54 PM63 °FMild.14 mph68%30.19 "HgN/A
6:54 PM65 °FMild.15 mph66%30.18 "HgN/A
5:54 PM65 °FMild.21 mph63%30.19 "HgN/A
4:54 PM66 °FMild.17 mph61%30.19 "HgN/A
3:54 PM68 °FMild.15 mph59%30.20 "HgN/A
2:54 PM68 °FMild.17 mph57%30.22 "HgN/A
1:54 PM67 °FMild.14 mph57%30.24 "HgN/A
Weather by CustomWeather, © 2014

See weather overviewHow to use our weather pages